Location: Bancroft
(37.9338°N, 122.0472°W)
Time: 18:35:42
(UTC+00:00)

Daily predictions for brighter satellites

Satellite Brightness Start Highest point End
(mag) Time Altitude Azimuth Time Altitude Azimuth Time Altitude Azimuth
STARLINK-1017 3.5 12:04:12 73° WNW 12:04:19 74° NW 12:08:28 10° NE
Lacrosse 5 rocket 2.8 12:05:34 23° NNW 12:05:34 23° NNW 12:08:20 10° NNE
Cosmos 1908 Rocket 3.4 12:01:00 10° N 12:05:23 74° W 12:06:17 54° SSW
STARLINK-81 3.4 12:06:44 70° WNW 12:06:52 70° NW 12:10:53 10° NE
STARLINK-54 3.6 12:08:33 61° NW 12:08:43 61° NW 12:12:43 10° NE
STARLINK-77 3.5 12:09:55 63° WNW 12:10:11 66° NW 12:14:12 10° NE
CZ-2C R/B 2.7 12:06:08 10° NNE 12:10:41 59° E 12:14:44 13° S
STARLINK-25 3.5 12:11:31 60° WNW 12:11:51 63° NW 12:15:51 10° NE
Cosmos 2142 Rocket 4.5 12:06:11 10° N 12:12:35 89° E 12:18:53 10° S
STARLINK-71 3.7 12:13:20 52° WNW 12:13:42 55° NW 12:17:39 10° NE
STARLINK-79 3.6 12:14:41 54° WNW 12:15:09 59° NW 12:19:08 10° NE
Cosmos 2333 Rocket 2.4 12:10:15 10° NW 12:15:35 44° WSW 12:20:54 10° S
Okean 1-7 2.9 12:15:08 47° SW 12:16:09 64° W 12:20:30 10° N
STARLINK-78 3.7 12:16:19 51° WNW 12:16:50 56° NW 12:20:49 10° NE
GPS 2-04 Rocket1 2.7 12:16:50 53° SSW 12:16:57 54° S 12:20:36 10° ESE
STARLINK-57 3.8 12:18:01 47° WNW 12:18:36 52° NW 12:22:33 10° NE
STARLINK-1048 3.8 12:18:31 47° WNW 12:19:15 55° NW 12:23:20 10° NE
Cosmos 1515 3.9 12:17:04 22° S 12:19:24 70° E 12:23:11 10° NNE
STARLINK-1029 4.4 12:19:46 25° NNW 12:19:46 25° NNW 12:22:10 10° NNE
STARLINK-49 3.8 12:19:27 47° WNW 12:20:07 53° NW 12:24:04 10° NE
deb Chang Zheng 4 4.4 12:17:18 10° N 12:21:00 32° WNW 12:21:00 32° WNW
STARLINK-27 3.8 12:21:03 44° WNW 12:21:47 51° NW 12:25:43 10° NE
Cosmos 1743 2.6 12:18:46 10° NNW 12:22:37 63° W 12:24:45 25° S
STARLINK-74 3.9 12:22:38 42° WNW 12:23:26 50° NW 12:27:21 10° NE
STARLINK-1023 4.1 12:23:04 38° WNW 12:24:02 46° NW 12:28:05 10° NE
IDEFIX/ARIANE 42P 3.2 12:19:26 10° N 12:24:05 34° WNW 12:25:10 31° W
STARLINK-1049 4.0 12:23:19 41° W 12:24:15 50° NW 12:28:18 10° NE
Okean 1 3.5 12:23:56 45° WSW 12:24:23 48° W 12:28:14 10° N
STARLINK-39 4.0 12:24:14 40° WNW 12:25:06 48° NW 12:29:01 10° NE
STARLINK-31 4.0 12:25:50 38° WNW 12:26:46 46° NW 12:30:40 10° NE
USA 238 DEB 3.7 12:21:55 18° SSW 12:26:59 81° ESE 12:33:50 10° NE
USA 238 3.7 12:22:00 18° SSW 12:27:07 80° ESE 12:33:57 10° NE
CZ-4B R/B 2.6 12:29:00 28° NW 12:29:00 28° NW 12:31:03 10° NNW
STARLINK-69 4.2 12:27:38 35° WNW 12:28:38 41° NW 12:32:28 10° NE
STARLINK-1051 4.1 12:28:06 35° W 12:29:15 46° NW 12:33:15 10° NE
STARLINK-21 4.1 12:29:03 35° WNW 12:30:08 43° NW 12:33:59 10° NE
Cosmos 1975 2.8 12:26:23 10° N 12:30:24 82° E 12:34:25 10° S
Cosmos 1689 Rocket 1.9 12:28:24 15° S 12:30:46 77° WSW 12:33:48 10° NNW
STARLINK-45 4.3 12:30:53 31° WNW 12:32:01 38° NW 12:35:48 10° NE
SL-4 R/B 2.0 12:29:23 16° NW 12:32:31 82° NE 12:36:53 10° SE
STARLINK-70 4.3 12:32:22 31° WNW 12:33:34 39° NW 12:37:22 10° NE
STARLINK-76 4.3 12:33:48 30° WNW 12:35:05 39° NW 12:38:54 10° NE
PAYLOAD A 4.1 12:31:16 10° N 12:36:38 62° WNW 12:41:38 11° SSW
STARLINK-23 4.3 12:35:24 29° WNW 12:36:45 38° NW 12:40:33 10° NE
Meteor 2-4 Rocket 4.1 12:31:38 10° S 12:37:31 73° E 12:43:26 10° NNE
STARLINK-32 4.4 12:37:01 28° WNW 12:38:27 37° NW 12:42:12 10° NE
STARLINK-1028 4.4 12:37:39 27° W 12:39:13 38° NW 12:43:08 10° NE
STARLINK-40 4.4 12:38:36 26° WNW 12:40:06 36° NW 12:43:51 10° NE
STARLINK-1034 4.4 12:38:30 16° SSW 12:41:31 46° SE 12:45:30 10° ENE
STARLINK-44 4.4 12:40:11 25° WNW 12:41:45 35° NW 12:45:28 10° NNE
USA 234 3.6 12:36:46 10° SSE 12:42:49 40° SW 12:48:55 10° WNW
MSX 4.4 12:37:36 10° N 12:42:53 39° WNW 12:46:41 18° SW
Cosmos 2237 Rocket 2.1 12:38:08 10° NNW 12:43:49 82° WSW 12:49:30 10° SSE
ATLAS CENTAUR R/B -0.1 12:43:53 69° NNW 12:43:53 69° NNW 12:45:48 10° NE
Cosmos 1300 Rocket 4.5 12:41:20 10° N 12:45:33 50° E 12:49:43 10° SSE
STARLINK-1068 4.3 12:43:19 15° SSW 12:46:29 52° SE 12:50:31 10° ENE
Cosmos 389 Rocket 2.5 12:43:11 10° S 12:46:47 87° E 12:50:23 10° N
ADEOS 3.8 12:44:16 10° N 12:49:16 48° WNW 12:54:15 10° SW
Cosmos 2298 Rocket 4.4 12:46:10 18° SW 12:49:52 44° WNW 12:54:59 10° N
Cosmos 1484 Rocket 3.3 12:48:26 10° NNE 12:52:16 60° E 12:56:00 10° S
Cosmos 2150 Rocket 4.4 12:48:40 15° SW 12:52:48 46° WNW 12:58:03 10° N
STARLINK-1031 3.8 12:52:17 15° SW 12:55:39 73° SE 12:59:49 10° NE
Nadezhda 4 Rocket 4.0 12:49:35 10° S 12:55:52 85° W 13:02:15 10° N
STARLINK-1060 3.9 12:52:53 13° SW 12:56:25 65° SE 13:00:31 10° NE
NOSS 3-2 (A) 3.4 12:51:46 14° SW 12:56:40 66° NW 13:02:58 10° NNE
H-2A R/B 2.7 12:53:07 10° NNE 12:57:18 72° E 13:01:18 10° S
Cosmos 2219 3.9 12:53:46 17° WSW 12:57:32 35° WNW 13:02:46 10° N
GENESIS II 4.5 12:53:48 10° SSW 12:57:49 73° ESE 13:01:54 10° NE
CZ-4B R/B 3.2 12:54:12 10° NNE 12:58:25 78° ESE 13:02:46 10° S
Cosmos 2279 Rocket 4.2 12:52:48 10° NNW 12:58:41 46° W 13:04:35 10° SSW
NOSS 0 Rocket 4.3 12:54:39 10° NW 13:00:22 41° WSW 13:06:04 10° S
STARLINK-1030 3.8 12:57:39 12° SW 13:01:22 72° SE 13:05:30 10° NE
Cosmos 2297 Rocket 2.7 12:57:25 13° SW 13:02:08 42° WNW 13:07:31 10° N
Cosmos 1048 Rocket 4.0 12:57:49 10° NNW 13:03:10 86° WSW 13:08:31 10° SSE
Meteor 2-9 Rocket 4.4 12:58:04 10° NNW 13:03:47 59° W 13:09:30 10° S
ATLAS 5 CENTAUR R/B 2.4 12:58:26 10° SSW 13:05:00 58° SE 13:07:35 10° NE
Cosmos 1125 Rocket 3.6 13:00:37 10° SSW 13:05:50 61° WNW 13:11:07 10° N
STARLINK-1020 3.7 13:02:27 11° SW 13:06:21 80° SE 13:10:30 10° NE
STARLINK-1052 3.6 13:07:15 10° SW 13:11:20 88° SE 13:15:30 10° NE
COSMOS 2428 4.2 13:15:05 10° WNW 13:17:55 14° W 13:20:45 10° SW
Cosmos 1900 4.5 13:16:29 10° SW 13:21:15 55° WNW 13:26:04 10° NNE
STARLINK-1033 3.6 13:17:09 10° SW 13:21:16 77° NW 13:25:25 10° NE
NOSS 3-2 (C) 3.4 13:16:55 10° SW 13:22:31 69° NW 13:28:51 10° NNE
Okean 1 Rocket 4.2 13:20:21 10° N 13:24:35 49° E 13:28:48 10° SSE
CENTAUR R/B 2.5 13:20:20 10° SW 13:26:04 81° NW 13:32:49 10° NNE
PSLV R/B 4.0 13:22:37 10° NNE 13:26:46 85° ESE 13:30:51 10° SSW
SeaSat 1 3.6 13:23:08 10° SSW 13:26:47 21° WSW 13:30:28 10° WNW
Cosmos 2227 Rocket 3.1 13:22:23 10° WSW 13:27:18 30° WNW 13:32:14 10° N
STARLINK-1024 3.7 13:27:09 10° WSW 13:31:15 63° NW 13:35:22 10° NE
